Regional Weather Roundup
Issued by NWS Goodland, KS

Home | Current Version | Previous Version | Graphics & Text | Print | Product List | Glossary On
Versions: 1 2 3 4 5 6 7 8 9 10 11 12 13 14 15 16 17 18 19 20 21 22 23 24 25 26 27 28 29 30 31 32 33 34 35 36 37 38 39 40 41 42 43 44 45 46 47 48 49 50
000
ASUS43 KGLD 090508
RWRGLD

GOODLAND FORECAST AREA HOURLY WEATHER ROUNDUP
NATIONAL WEATHER SERVICE GOODLAND KS
1000 PM MST THU DEC 08 2016

...OFFICIAL OBSERVATIONS...

CITY           SKY/WX    TMP DP  RH WIND       PRES   REMARKS
GOODLAND KS    CLOUDY     7   1  76 S8        30.42F
HILL CITY KS   CLOUDY     1  -4  79 CALM      30.59S
IMPERIAL NEB   CLOUDY     5   0  79 S5        30.44F
MCCOOK NEB     CLOUDY     1  -3  83 SW7       30.53F
AKRON CO       CLOUDY    13   4  67 S14       30.27F WCI  -2
BURLINGTON CO  CLOUDY    10   1  67 S14       30.36F WCI  -6
LIMON CO       CLOUDY     6  -1  73 S9        30.25F
$$

...UNOFFICIAL OBSERVATIONS...

CITY           SKY/WX    TMP DP  RH WIND       PRES   REMARKS
COLBY KS       CLEAR      7   1  78 SE6       30.49F
LENORA KS        N/A     11  32 100 MISG        N/A
NORTON KS      CLEAR      0  -8  71 SW8       30.55F
SHARON SPRINGS   N/A      3  -2  81 SE10        N/A  WCI -12
TRENTON NEB      N/A      5  32 100 CALM        N/A
KIT CARSON CO    N/A     10   1  66 MISG        N/A
YUMA CO        CLOUDY    12   5  73 SE10      30.34F WCI  -1
$$



USA.gov is the U.S. government's official web portal to all federal, state and local government web resources and services.